Flag for Canada Weather past 2 weeks in Thunder Bay, Ontario, Canada

Now
70 °F

Partly sunny.


Feels Like: 70 °F
Forecast: 59 / 72 °F
Wind: 18 mph from West

Location: Thunder Bay

Current Time: Jul 31, 2015 at 1:39:14 PM

Latest Report: Jul 31, 2015 at 1:00 PM


Visibility: 20 mi

Pressure: 29.84 "Hg

Humidity: 60%

Dew point: 55 °F

Location of Thunder BayLocation

Historic Weather in Thunder Bay — Graph

°F

Thunder Bay temperature yesterday

Maximum temperature yesterday: 79 °F (at 4:00 PM)
Minimum temperature yesterday: 57 °F (at 11:00 PM)
Average temperature yesterday: 68 °F

Past Weeks' High & Low Weather Summary

 TemperatureHumidityPressure
High90 °F (Jul 27, 5:00 PM)100% (Jul 17, 5:00 AM)29.98 "Hg (Jul 17, 5:00 AM)
Low48 °F (Jul 22, 5:00 AM)36% (Jul 20, 5:00 PM)29.51 "Hg (Jul 20, 12:00 AM)
Average67 °F76%29.79 "Hg
* Reported Jul 16 12:00 Noon — Jul 31 12:00 Noon, Thunder Bay, Weather by CustomWeather, © 2015

Note: Actual official high and low records may vary slightly from our data, if they occured in-between our weather recording intervals... More about our weather records

Advertising

Thunder Bay weather history for previous 24 hours

 ConditionsComfort  
Time TempWeatherWind HumidityBarometerVisibility
12:00 PM
Fri, Jul 31
68 °FPartly sunny.15 mph69%29.85 "Hg20 mi
11:00 AM66 °FPartly sunny.14 mph68%29.85 "Hg20 mi
10:00 AM63 °FBroken clouds.9 mph83%29.85 "Hg20 mi
9:00 AM63 °FScattered clouds.10 mph83%29.83 "Hg20 mi
8:00 AM59 °FPassing clouds.10 mph88%29.83 "Hg20 mi
7:00 AM57 °FPassing clouds.7 mph94%29.81 "Hg15 mi
6:00 AM57 °FPassing clouds.7 mph94%29.81 "Hg15 mi
5:00 AM57 °FPassing clouds.12 mph94%29.80 "Hg15 mi
4:00 AM59 °FPassing clouds.12 mph88%29.79 "Hg15 mi
3:00 AM59 °FPassing clouds.9 mph94%29.80 "Hg15 mi
2:00 AM59 °FSprinkles. Overcast.8 mph94%29.80 "Hg15 mi
1:00 AM59 °FPartly cloudy.9 mph94%29.83 "Hg15 mi
12:00 AM59 °FPassing clouds.8 mph94%29.82 "Hg15 mi
11:00 PM
Thu, Jul 30
57 °FPassing clouds.5 mph94%29.84 "Hg20 mi
10:00 PM59 °FPartly sunny.9 mph94%29.84 "Hg20 mi
9:00 PM64 °FThunderstorms. Partly sunny.5 mph78%29.83 "Hg15 mi
8:00 PM70 °FBroken clouds.9 mph73%29.80 "Hg20 mi
7:00 PM70 °FBroken clouds.12 mph69%29.80 "Hg20 mi
6:00 PM66 °FBroken clouds.10 mph83%29.81 "Hg20 mi
5:00 PM77 °FBroken clouds.15 mph44%29.80 "Hg20 mi
4:00 PM79 °FPartly sunny.17 mph42%29.80 "Hg20 mi
3:00 PM77 °FPartly sunny.16 mph47%29.81 "Hg20 mi
2:00 PM73 °FPartly sunny.20 mph50%29.82 "Hg20 mi
1:00 PM75 °FScattered clouds.17 mph47%29.81 "Hg20 mi
Weather by CustomWeather, © 2015

See weather overviewHow to use our weather pages